Regional Weather Roundup
Issued by NWS Albany, NY

Home | Current Version | Previous Version | Text Only | Print | Product List | Glossary On
Versions: 1 2 3 4 5 6 7 8 9 10 11 12 13 14 15 16 17 18 19 20 21 22 23 24 25 26 27 28 29 30 31 32 33 34 35 36 37 38 39 40 41 42 43 44 45 46 47 48 49 50
000
ASUS41 KALY 290410
RWRALY

NEW YORK STATE HOURLY WEATHER ROUNDUP
NATIONAL WEATHER SERVICE ALBANY NY
1200 AM EDT FRI APR 29 2016

NOTE: "FAIR" INDICATES FEW OR NO CLOUDS BELOW 12,000 FEET WITH NO
SIGNIFICANT WEATHER AND/OR NO OBSTRUCTIONS TO VISIBILITY.

NYZ032-033-038>043-046>054-057>066-NYZ062>081-082-084-290500-
EAST


CITY           SKY/WX    TMP DP  RH WIND       PRES   REMARKS
ALBANY         MOCLDY    41  18  39 N14       30.08S
GLENS FALLS    PTCLDY    37  20  50 N3        30.11S
POUGHKEEPSIE   CLOUDY    51  40  65 S5        30.04S
NEWBURGH       CLOUDY    48  41  76 CALM      30.05F
MONTGOMERY     CLOUDY    48  42  80 CALM      30.04S
WHITE PLAINS   DRIZZLE   47  33  58 CALM      30.05S
ISLIP          CLOUDY    48  37  65 E7        30.06F
NEW YORK CITY  CLOUDY    49  38  65 VRB3      30.05F
CENTRAL PARK   CLOUDY    49  36  61 CALM      30.07F
$$

NYZ005>009-017-018-044>046-055-056-290500-
CENTRAL


CITY           SKY/WX    TMP DP  RH WIND       PRES   REMARKS
FULTON         CLOUDY    44  24  45 N7        30.06F
SYRACUSE       CLOUDY    43  27  53 N5        30.04F
ROME           CLOUDY    43  22  43 CALM      30.06S
ELMIRA         CLOUDY    44  32  62 E5        30.04R
BINGHAMTON     CLOUDY    44  31  60 W3        30.01S
MONTICELLO     CLOUDY    46  36  66 S6        30.03S
$$

NYZ026>034-041>043-087-290500-
NORTH


CITY           SKY/WX    TMP DP  RH WIND       PRES   REMARKS
WATERTOWN      CLOUDY    38  20  48 NE12      30.09F WCI  30
FORT DRUM      NOT AVBL
MASSENA        CLOUDY    33  20  58 E3        30.16S
SARANAC LAKE   CLOUDY    28  16  60 NE3       30.08F
PLATTSBURGH    CLEAR     29  21  72 CALM      30.17S
$$

NYZ001>004-010>016-019>021-085-290500-
WEST


CITY           SKY/WX    TMP DP  RH WIND       PRES   REMARKS
NIAGARA FALLS  CLOUDY    41  26  55 E8        30.05S
BUFFALO        CLOUDY    43  25  49 E10       30.04S
DUNKIRK        CLOUDY    45  34  65 E13       30.01S
JAMESTOWN      CLOUDY    41  37  87 E3        29.98R
WELLSVILLE     LGT RAIN  40  37  89 E5        30.01S
ROCHESTER      MOCLDY    44  24  45 E8        30.07S
PENN YAN       CLOUDY    43  28  55 N3        30.05F
$$

             KEY
       WCI = WIND CHILL INDEX
       VSB = VISIBILITY
       HX  = HEAT INDEX
$$



USA.gov is the U.S. government's official web portal to all federal, state and local government web resources and services.